Printer-friendly version

IAU Minor Planet Center

Minor Planet Center

MPEC 2003-N41 : 2003 NL7

The following Minor Planet Electronic Circular may be linked-to from your own Web pages, but must not otherwise be redistributed electronically.


Read MPEC 2003-N40 Read MPEC 2003-N42


M.P.E.C. 2003-N41                                Issued 2003 July 11, 11:53 UT

     The Minor Planet Electronic Circulars contain information on unusual
         minor planets and routine data on comets.  They are published
   on behalf of Commission 20 of the International Astronomical Union by the
          Minor Planet Center, Smithsonian Astrophysical Observatory,
                          Cambridge, MA 02138, U.S.A.

             Prepared using the Tamkin Foundation Computer Network

                              MPC@CFA.HARVARD.EDU
          URL http://cfa-www.harvard.edu/iau/mpc.html  ISSN 1523-6714

                                   2003 NL7

Observations:
     K03N07L* C2003 07 08.43498 22 43 03.81 -16 19 01.1          18.7        644
     K03N07L  C2003 07 08.45664 22 43 06.02 -16 18 00.4          18.3        644
     K03N07L  C2003 07 08.48062 22 43 08.42 -16 16 52.8          18.3        644
     K03N07L  C2003 07 09.02069 22 44 11.11 -15 51 29.9          18.6 R      620
     K03N07L  C2003 07 09.04813 22 44 13.26 -15 50 18.9          18.5        461
     K03N07L  C2003 07 09.04927 22 44 13.45 -15 50 13.0                      461
     K03N07L  C2003 07 09.05043 22 44 13.53 -15 50 09.7                      461
     K03N07L  C2003 07 09.05159 22 44 13.65 -15 50 07.8                      461
     K03N07L  C2003 07 09.05284 22 44 13.68 -15 50 05.3                      461
     K03N07L  C2003 07 09.28232 22 44 40.32 -15 39 12.7          18.4 R      649
     K03N07L  C2003 07 09.28469 22 44 40.57 -15 39 05.5          18.3 R      649
     K03N07L  C2003 07 09.28735 22 44 40.79 -15 38 58.3          18.4 R      649
     K03N07L  C2003 07 11.06052 22 47 47.79 -14 16 13.9          18.9 R      620
     K03N07L  C2003 07 11.06771 22 47 48.49 -14 15 54.1          18.4 R      620
     K03N07L  C2003 07 11.07488 22 47 49.06 -14 15 34.0          18.2 R      620
     K03N07L  C2003 07 11.32596 22 48 14.54 -14 03 54.2          18.8 R      649
     K03N07L  C2003 07 11.32760 22 48 14.69 -14 03 48.4          18.5 R      649
     K03N07L  C2003 07 11.33215 22 48 15.14 -14 03 35.5          18.7 R      649

Observer details:
461 JATE Asteroid Survey, Piszkesteto Stn. (Konkoly).  Observers K. Sarneczky,
    B. Sip\H ocz.  0.60-m Schmidt + CCD.
620 Observatorio Astronomico de Mallorca.  Observers S. Sanchez, R. Stoss,
    J. Nomen.  0.30-m f/9 Schmidt-Cassegrain + CCD.
644 Palomar Mountain/NEAT.  Observers S. Pravdo, D. MacDonald, K. Lawrence,
    M. Hicks.  1.2-m Schmidt + CCD.
649 Powell Observatory, Louisburg.  Observers R. Fredrick, M. Glaze,
    R. Trentman.  0.75-m Newtonian + CCD.

Orbital elements:
2003 NL7
Epoch 2003 June 30.0 TT = JDT 2452820.5                 MPC
M 359.21001              (2000.0)            P               Q
n   0.33144567     Peri.  341.94921     +0.31874732     +0.94314781
a   2.0678918      Node   306.53423     -0.85453810     +0.24295365
e   0.4343439      Incl.    6.73217     -0.41007899     +0.22681651
P   2.97           H   20.1           G   0.15
From 18 observations 2003 July 8-11.

Ephemeris:
2003 NL7                 a,e,i = 2.07, 0.43, 7                   q = 1.1697
Date    TT    R. A. (2000) Decl.     Delta      r     Elong.  Phase     V
2003 07 10    22 45.94   -15 05.2    0.224    1.172   129.8    41.8    18.8
2003 07 20    22 59.43   -07 37.5    0.227    1.184   133.7    38.3    18.8
2003 07 30    23 04.86   -01 14.1    0.236    1.205   139.4    33.3    18.8
2003 08 09    23 03.66   +03 40.5    0.253    1.233   146.4    27.0    18.8
2003 08 19    22 58.05   +06 58.9    0.279    1.269   154.1    20.4    18.9
2003 08 29    22 50.49   +08 46.7    0.313    1.310   160.8    14.7    19.0
2003 09 08    22 43.67   +09 22.6    0.359    1.356   163.8    11.9    19.3
2003 09 18    22 39.44   +09 12.6    0.417    1.406   161.1    13.4    19.7
2003 09 28    22 38.62   +08 40.1    0.489    1.459   154.8    17.0    20.3
2003 10 08    22 41.38   +08 03.9    0.574    1.514   147.4    20.8    20.8
2003 10 18    22 47.29   +07 35.4    0.671    1.571   139.9    24.1    21.3
2003 10 28    22 55.79   +07 19.9    0.782    1.628   132.6    26.7    21.8

Timothy B. Spahr             (C) Copyright 2003 MPC           M.P.E.C. 2003-N41

Read MPEC 2003-N40 Read MPEC 2003-N42


Our Web policy. Index to the CBAT/MPC/ICQ pages.


Valid HTML 4.01!